Search for airport 
image banner adimage banner ad
image banner ad

DAOB - Tiaret / Abdelhafid Boussouf Bou Chekif

Located in Tiaret, Algeria

ICAO - DAOB, IATA - TID

Data provided by Airmate  

General information

Coordinates: N35°20'29" E1°28'1"
Elevation is 3244 feet MSL.
 
View others Airports in Tiaret Province

Operational data

Open for public use
Current time UTC:
Current local time:
Weather
METAR: DAOB 010000Z 21005KT CAVOK 06/M04 Q1027
TAF: TAF DAOB 312300Z 0100/0124 VRB02KT CAVOK TEMPO 0113/0117 33010KT
View NOTAMs / SUP AIP / TFR affecting this airport [VIEW]
Communications frequencies: [VIEW]

Runways:

RWY identifierQFULength (ft)Width (ft)SurfaceLDA (ft)
0881°9843148ASP
26261°9843148

Airport contact information

Address: Tiaret Algeria

Satellite view of DAOB